Regional Weather Roundup
Issued by NWS

Home | Current Version | Previous Version | Graphics & Text | Print | Product List | Glossary On
Versions: 1 2 3 4 5 6 7 8 9 10 11 12 13 14 15 16 17 18 19 20 21 22 23 24 25 26 27 28 29 30 31 32 33 34 35 36 37 38 39 40 41 42 43 44 45 46 47 48 49 50
000
ASUS43 KDMX 140901
RWRIA

WEATHER ROUNDUP FOR IOWA
NATIONAL WEATHER SERVICE DES MOINES IA
300 AM CST THU DEC 14 2017

NOTE: "FAIR" INDICATES FEW OR NO CLOUDS BELOW 12,000 FEET WITH NO
SIGNIFICANT WEATHER AND/OR OBSTRUCTIONS TO VISIBILITY.

* - THESE STATIONS ARE NOT NWS STATIONS...THUS NOT UNDER NWS
QUALITY CONTROL.  THEY ALSO DO NOT REPORT WEATHER SUCH
AS PRECIPITATION OR FOG.

IAZ001>003-012>014-020>022-031>034-043>046-141000-
   NORTHWEST IOWA

CITY           SKY/WX    TMP DP  RH WIND       PRES   REMARKS
CARROLL *      CLOUDY    27  19  74 N13       29.99R WCI  16
CHEROKEE *     CLOUDY    26  22  85 N6        30.00S WCI  19
DENISON *      CLOUDY    28  25  86 CALM      30.02R
LE MARS *      CLOUDY    30  25  80 NE3       30.00S
ORANGE CITY *  CLOUDY    28  27  93 N5        29.99S WCI  23
SHELDON *      CLOUDY    25  21  86 N9        29.97F WCI  15
SIOUX CITY     CLOUDY    32  26  78 N3        30.02R
SPENCER        CLOUDY    24  17  74 NW12      29.99S WCI  13
STORM LAKE *   CLOUDY    25  19  80 N15       29.98S WCI  12
$$

IAZ055>058-069>071-079>083-090>094-141000-
   SOUTHWEST IOWA

CITY           SKY/WX    TMP DP  RH WIND       PRES   REMARKS
ATLANTIC *     CLOUDY    30  25  80 NE7       30.00S WCI  23
AUDUBON *      PTCLDY    28  21  74 NW6       30.00R WCI  22
CLARINDA *       N/A     36  25  64 N9          N/A  WCI  29
COUNCIL BLFS * CLOUDY    34  28  80 NW7       30.01R WCI  28
CRESTON *      CLOUDY    28  21  74 N12       30.00R WCI  18
HARLAN  *      CLOUDY    30  27  86 CALM      30.04R
LAMONI         CLOUDY    28  19  69 N8        29.99R WCI  20
RED OAK *      CLOUDY    34  25  69 CALM      30.01S
SHENANDOAH *   CLOUDY    36  27  69 N8G15     30.02S WCI  29
$$

IAZ047>049-059>061-072>074-084-141000-
   CENTRAL IOWA

CITY           SKY/WX    TMP DP  RH WIND       PRES   REMARKS
AMES           CLOUDY    21  17  84 N6        29.99S WCI  13
ANKENY *       CLOUDY    25  18  74 N6        30.01R WCI  18
BOONE *        CLOUDY    23  18  80 N9        29.98S WCI  13
CHARITON *     CLOUDY    28  19  69 NE8       29.99R WCI  20
DES MOINES     CLOUDY    27  17  66 N12       30.00R WCI  17
GRINNELL*      CLOUDY    25  18  74 N12       29.98S WCI  14
KNOXVILLE *    CLOUDY    27  18  69 N9        29.98R WCI  17
MARSHALLTOWN   CLOUDY    24  17  74 N7        29.97S WCI  16
NEWTON *       CLOUDY    25  18  74 NE8       29.99R WCI  16
PELLA *        CLOUDY    27  18  70 N5        30.00R WCI  22
PERRY *        CLOUDY    27  19  71 N6        30.00R WCI  20
$$

IAZ004>006-015-016-023>025-035-036-141000-
   NORTH CENTRAL IOWA

CITY           SKY/WX    TMP DP  RH WIND       PRES   REMARKS
ALGONA *       CLOUDY    21  19  93 N9        29.98S WCI  11
CLARION *      CLOUDY    23  18  80 N6        29.99R WCI  16
ESTHERVILLE    CLOUDY    21  16  81 N7        29.98S WCI  12
FORT DODGE *   CLOUDY    23  17  78 N9        29.99R WCI  13
MASON CITY     CLOUDY    20  14  77 N9        29.99R WCI   9
FOREST CITY *  CLOUDY    21  19  93 N5        29.98R WCI  15
WEBSTER CITY * PTCLDY    18  14  86 N6        29.97S WCI   9
IOWA FALLS *   CLOUDY    25  17  73 N6        29.98F WCI  18
$$

IAZ007>011-017>019-026>030-037>042-050>054-066-141000-
   NORTHEAST IOWA

CITY           SKY/WX    TMP DP  RH WIND       PRES   REMARKS
CEDAR RAPIDS   PTCLDY    16  11  80 N8        29.97R WCI   5
CHARLES CITY * CLOUDY    14  14 100 NW5       29.99R WCI   6
CLINTON *      CLOUDY    23  16  74 N8        29.98R WCI  14
DECORAH *      PTCLDY    14  12  92 N3        29.96S
DUBUQUE        CLOUDY    20  14  77 NE9       29.96R WCI   9
MONTICELLO *   CLOUDY    19  12  73 N5        29.97S WCI  13
OELWEIN *      CLOUDY    12  12 100 NW6       29.98S WCI   3
WATERLOO       CLOUDY    19  13  77 N5        29.99R WCI  12
$$

IAZ064-065-067-068-078-141000-
   EAST CENTRAL IOWA

CITY           SKY/WX    TMP DP  RH WIND       PRES   REMARKS
DAVENPORT      CLOUDY    23  14  68 N8        29.99R WCI  14
IOWA CITY      CLOUDY    23  14  68 N7        30.01R WCI  15
MT. PLEASANT * CLOUDY    25  16  67 N9        29.99R WCI  16
MUSCATINE *    CLOUDY    23  16  74 NW7       30.00R WCI  15
QUAD CITIES    CLOUDY    25  16  68 N9        29.98R WCI  15
$$

IAZ062-063-075>077-085>089-095>099-141000-
   SOUTHEAST IOWA

CITY           SKY/WX    TMP DP  RH WIND       PRES   REMARKS
BURLINGTON     CLOUDY    26  17  68 N10       29.97R WCI  16
FAIRFIELD *    CLOUDY    27  16  63 N8        29.98R WCI  18
FORT MADISON * CLOUDY    27  18  69 N8        29.98R WCI  18
KEOKUK *       CLOUDY    28  18  64 N8        29.98R WCI  20
OSKALOOSA *    CLOUDY    26  18  70 N10       29.99S WCI  16
OTTUMWA        CLOUDY    27  17  66 N8        29.99R WCI  19
WASHINGTON *   PTCLDY    21  16  79 N8        30.00R WCI  12
$$

ABBREVIATIONS USED IN REMARKS
   TC - TEMPERATURES IN CELSIUS
  WCI - WIND CHILL INDEX
   HX - HEAT INDEX
  VSB - VISIBILITY
$$




USA.gov is the U.S. government's official web portal to all federal, state and local government web resources and services.